星链-3772 (STARLINK-3772 )

导读 | 星芒AI

STARLINK-3772 是 SpaceX Starlink 项目中的一颗低轨通信卫星,属于第 12 批组网发射的卫星之一。该卫星于 2022 年 3 月 30 日由猎鹰 9 号火箭送入近地轨道,旨在为全球用户提供高速互联网服务。作为 Starlink 卫星群的一部分,STARLINK-3772 运行在约 550 公里的高度,具备先进的相控阵天线和激光通信技术,以提升网络连接的稳定性和效率。该卫星支持全球范围内的宽带接入,尤其在偏远地区发挥重要作用。

基本信息
目录编号:
52290
目录名称:
STARLINK-3772
国际标识:
2022-041AF
轨道中心:
EARTH
卫星名称:
星链-3772
卫星全名:
星链-3772 (STARLINK-3772 )
卫星状态:
在轨 (已飞行1293 天)
发射日期:
2022-04-21 UTC
国别 :
美国 (US)
星等 :
--
轨道信息
数据来源 国际轨道数据
星历时间: 2025-11-04T15:05:39+0800
12小时前
查看轨道信息
半长轴: 6917.86km
偏心率: 0.0001401
轨道倾角: 53.217°
近地点辐角 93.133°
升交点赤经 302.036°
平近点角 266.982°
近地点: 538.755km
远地点: 540.695km
周期: 95.437分钟
每日圈数: 15.088467
详细信息
固有亮度:
5
最大亮度:
2.5
卫星平台:
Starlink v1.5
覆盖范围:
全球
运营商:
太空探索技术公司
运营商所在国:
美国
制造商(研发单位):
太空探索技术公司
制造商所在国:
美国
使用方式:
暂无
卫星简介
星链(Starlink)计划是由太空探索技术公司(SpaceX)提出的一个巨型低轨卫星互联网星座项目,计划在2019年至2024年间在太空搭建由约1.2万颗卫星组成的“星链”网络,其中1584颗将部署在地球上空550千米处的近地轨道,并从2020年开始工作。该卫星仍在工作。
2D轨道图
3D轨道图
轨道高度分析图
轨道倾角分析图
轨道综合分析图
查看轨道综合分析图